User: anonymous   Login
Location: Lawrence Hall of Science
(37.8785°N, 122.2415°W)
Time: 10:50:02
(UTC-07:00)
Language:

ARGOS - Orbit

View from above orbital plane
View from above orbital plane
View from above satellite
View from above satellite

Ground track
Ground track

The orbit data is extracted from the following two-line orbital elements,

1 25634U 99008A   17111.79955727 -.00000010 +00000-0 +15555-4 0  9995
2 25634 098.6243 176.0971 0010412 017.3415 342.8115 14.19309128939995
Epoch (UTC): 21 April 2017 19:11:21
Eccentricity: 0.0010412
inclination: 98.6243°
perigee height: 820 km
apogee height: 835 km
right ascension of ascending node: 176.0971°
argument of perigee: 17.3415°
revolutions per day: 14.19309128
mean anomaly at epoch: 342.8115°
orbit number at epoch: 93999

The dashed part of the orbit path shows where the satellite is in the earth's shadow,  

DLR